Flag for Thailand Weather past 2 weeks in Hat Yai, Thailand

Now
75 °F

Partly sunny.


Feels Like: 74 °F
Forecast: 76 / 83 °F
Wind: 2 mph from Northwest

Location: Hat Yai Airport

Current Time: Dec 27, 2014 at 8:00:42 AM

Latest Report: Dec 27, 2014 at 7:30 AM


Visibility: N/A

Pressure: 29.83 "Hg

Humidity: 94%

Dew point: 73 °F

Location of Hat YaiLocation

Historic Weather in Hat Yai — Graph

°F

Hat Yai temperature yesterday

Maximum temperature yesterday: 88 °F (at 2:00 PM)
Minimum temperature yesterday: 77 °F (at 1:00 AM)
Average temperature yesterday: 81 °F

Past Weeks' High & Low Weather Summary

 TemperatureHumidityPressure
High88 °F (Dec 12, 1:00 PM)100% (Dec 12, 6:00 AM)29.95 "Hg (Dec 12, 6:00 AM)
Low72 °F (Dec 12, 6:00 AM)59% (Dec 26, 10:30 AM)29.71 "Hg (Dec 26, 3:00 PM)
Average78 °F93%29.83 "Hg
* Reported Dec 12 6:00 AM — Dec 27 6:30 AM, Hat Yai, Weather by CustomWeather, © 2014

Note: Actual official high and low records may vary slightly from our data, if they occured in-between our weather recording intervals... More about our weather records

Advertising

Hat Yai weather history for previous 24 hours

 ConditionsComfort  
Time TempWeatherWind HumidityBarometerVisibility
6:30 AM
Dec 27
75 °FPartly sunny.2 mph94%29.77 "HgN/A
6:00 AM75 °FPassing clouds.3 mph94%29.77 "Hg6 mi
5:30 AM75 °FPassing clouds.5 mph94%29.77 "Hg5 mi
5:00 AM75 °FPassing clouds.2 mph94%29.77 "Hg4 mi
4:30 AM75 °FFog.3 mph94%29.77 "Hg1 mi
4:00 AM75 °FPassing clouds.No wind94%29.77 "Hg5 mi
3:30 AM75 °FPassing clouds.No wind94%29.77 "HgN/A
3:00 AM75 °FPassing clouds.No wind94%29.77 "HgN/A
2:30 AM75 °FPassing clouds.2 mph94%29.77 "HgN/A
2:00 AM75 °FPartly cloudy.No wind94%29.80 "HgN/A
1:30 AM77 °FPartly cloudy.No wind89%29.80 "HgN/A
1:00 AM77 °FMostly cloudy.2 mph89%29.80 "HgN/A
12:30 AM77 °FPartly cloudy.No wind89%29.83 "HgN/A
12:00 AM77 °FPartly cloudy.3 mph89%29.83 "HgN/A
11:30 PM
Dec 26
77 °FPartly cloudy.3 mph89%29.83 "HgN/A
11:00 PM77 °FLight rain. Partly cloudy.No wind89%29.83 "Hg6 mi
10:30 PM77 °FLight rain. Partly cloudy.6 mph89%29.83 "Hg4 mi
10:00 PM77 °FLight rain. Partly cloudy.3 mph89%29.83 "HgN/A
9:30 PM77 °FLight rain. Partly cloudy.5 mph89%29.83 "HgN/A
9:00 PM79 °FPartly cloudy.5 mph84%29.83 "HgN/A
8:30 PM79 °FPartly cloudy.2 mph84%29.80 "HgN/A
8:00 PM79 °FPartly cloudy.2 mph84%29.80 "HgN/A
7:30 PM79 °FPassing clouds.No wind84%29.80 "HgN/A
7:00 PM81 °FPassing clouds.3 mph79%29.77 "HgN/A
6:30 PM81 °FPartly cloudy.8 mph84%29.77 "HgN/A
6:00 PM82 °FBroken clouds.10 mph79%29.77 "HgN/A
5:30 PM84 °FBroken clouds.14 mph79%29.74 "HgN/A
5:00 PM84 °FPartly sunny.16 mph84%29.74 "HgN/A
4:30 PM84 °FBroken clouds.16 mph84%29.74 "HgN/A
4:00 PM86 °FBroken clouds.16 mph84%29.74 "HgN/A
3:30 PM86 °FBroken clouds.14 mph84%29.71 "HgN/A
3:00 PM86 °FBroken clouds.17 mph89%29.71 "HgN/A
2:30 PM86 °FBroken clouds.14 mph89%29.74 "HgN/A
2:00 PM88 °FBroken clouds.14 mph70%29.74 "HgN/A
1:30 PM86 °FBroken clouds.16 mph75%29.77 "HgN/A
1:00 PM84 °FBroken clouds.14 mph79%29.77 "HgN/A
12:30 PM84 °FBroken clouds.10 mph79%29.80 "HgN/A
12:00 PM86 °FBroken clouds.10 mph75%29.80 "HgN/A
11:30 AM86 °FBroken clouds.15 mph75%29.83 "HgN/A
11:00 AM86 °FBroken clouds.8 mph79%29.83 "HgN/A
10:30 AM86 °FBroken clouds.13 mph59%29.83 "HgN/A
9:30 AM84 °FBroken clouds.13 mph79%29.83 "HgN/A
9:00 AM82 °FLight rain. Broken clouds.8 mph89%29.83 "HgN/A
8:30 AM82 °FBroken clouds.8 mph89%29.83 "HgN/A
8:00 AM79 °FBroken clouds.2 mph94%29.80 "HgN/A
Weather by CustomWeather, © 2014

See weather overviewHow to use our weather pages